Hourly Weather Dumfries

Today, 12 August, Wednesday

Time Temperature Precipitation Wind Pressure Humidity
00:00 +18°C° 0 mm 2 mps 759 mmHg 97%
01:00 +19°C° 1.8 mm 1 mps 759 mmHg 97%
02:00 +19°C° 1.8 mm 1 mps 759 mmHg 98%
03:00 +19°C° 1.8 mm 1 mps 759 mmHg 98%
04:00 +19°C° 0.8 mm 1 mps 758 mmHg 98%
05:00 +19°C° 0.8 mm 1 mps 758 mmHg 98%
06:00 +20°C° 0 mm 1 mps 758 mmHg 99%
07:00 +20°C° 0 mm 1 mps 758 mmHg 96%
08:00 +21°C° 0 mm 1 mps 758 mmHg 93%
09:00 +22°C° 0 mm 1 mps 759 mmHg 90%
10:00 +22°C° 0 mm 1 mps 759 mmHg 88%
11:00 +23°C° 0 mm 1 mps 759 mmHg 85%
12:00 +24°C° 0 mm 1 mps 759 mmHg 82%
13:00 +25°C° 0 mm 1 mps 759 mmHg 79%
14:00 +26°C° 0 mm 1 mps 758 mmHg 75%
15:00 +27°C° 0 mm 1 mps 758 mmHg 71%
16:00 +26°C° 0.1 mm 1 mps 758 mmHg 74%
17:00 +26°C° 0.1 mm 1 mps 758 mmHg 77%
18:00 +26°C° 0.1 mm 1 mps 758 mmHg 80%
19:00 +24°C° 0.2 mm 1 mps 758 mmHg 85%
20:00 +22°C° 0.2 mm 1 mps 759 mmHg 90%
21:00 +19°C° 0.2 mm 2 mps 759 mmHg 95%
22:00 +20°C° 0 mm 1 mps 759 mmHg 95%
23:00 +19°C° 0 mm 1 mps 759 mmHg 96%

Tomorrow, 13 August, Thursday

Time Temperature Precipitation Wind Pressure Humidity
00:00 +19°C° 0 mm 1 mps 759 mmHg 97%
01:00 +19°C° 0 mm 1 mps 759 mmHg 97%
02:00 +18°C° 0 mm 2 mps 759 mmHg 97%
03:00 +18°C° 0 mm 2 mps 759 mmHg 97%
04:00 +18°C° 0 mm 2 mps 759 mmHg 96%
05:00 +18°C° 0 mm 2 mps 759 mmHg 95%
06:00 +18°C° 0 mm 2 mps 759 mmHg 95%
07:00 +18°C° 0 mm 2 mps 759 mmHg 93%
08:00 +19°C° 0 mm 2 mps 759 mmHg 92%
09:00 +19°C° 0 mm 2 mps 759 mmHg 90%
10:00 +20°C° 0 mm 2 mps 759 mmHg 88%
11:00 +20°C° 0 mm 3 mps 759 mmHg 85%
12:00 +21°C° 0 mm 3 mps 759 mmHg 83%
13:00 +21°C° 0 mm 3 mps 759 mmHg 83%
14:00 +21°C° 0 mm 3 mps 759 mmHg 82%
15:00 +21°C° 0 mm 3 mps 759 mmHg 82%
16:00 +20°C° 0 mm 3 mps 759 mmHg 84%
17:00 +19°C° 0 mm 3 mps 759 mmHg 85%
18:00 +19°C° 0 mm 3 mps 759 mmHg 87%
19:00 +18°C° 0 mm 3 mps 759 mmHg 89%
20:00 +17°C° 0 mm 2 mps 760 mmHg 91%
21:00 +16°C° 0 mm 2 mps 760 mmHg 93%
22:00 +16°C° 0 mm 2 mps 760 mmHg 92%
23:00 +16°C° 0 mm 2 mps 760 mmHg 91%

Day after tomorrow, 14 August, Friday

Time Temperature Precipitation Wind Pressure Humidity
00:00 +16°C° 0 mm 2 mps 760 mmHg 91%
01:00 +16°C° 0 mm 2 mps 760 mmHg 91%
02:00 +16°C° 0 mm 2 mps 760 mmHg 91%
03:00 +16°C° 0 mm 2 mps 760 mmHg 92%
04:00 +16°C° 0 mm 2 mps 759 mmHg 91%
05:00 +16°C° 0 mm 2 mps 759 mmHg 91%
06:00 +16°C° 0 mm 2 mps 759 mmHg 91%
07:00 +16°C° 0 mm 2 mps 760 mmHg 88%
08:00 +17°C° 0 mm 2 mps 760 mmHg 86%
09:00 +17°C° 0 mm 2 mps 760 mmHg 83%
10:00 +18°C° 0 mm 2 mps 760 mmHg 82%
11:00 +19°C° 0 mm 2 mps 760 mmHg 80%
12:00 +19°C° 0 mm 2 mps 760 mmHg 78%
13:00 +20°C° 0 mm 2 mps 760 mmHg 77%
14:00 +20°C° 0 mm 2 mps 760 mmHg 77%
15:00 +20°C° 0 mm 2 mps 760 mmHg 76%
16:00 +20°C° 0 mm 2 mps 760 mmHg 78%
17:00 +19°C° 0 mm 2 mps 759 mmHg 80%
18:00 +19°C° 0 mm 2 mps 759 mmHg 81%
19:00 +18°C° 0 mm 2 mps 760 mmHg 85%
20:00 +16°C° 0 mm 2 mps 760 mmHg 89%
21:00 +15°C° 0 mm 1 mps 760 mmHg 93%
22:00 +14°C° 0 mm 1 mps 760 mmHg 94%
23:00 +14°C° 0 mm 1 mps 760 mmHg 94%

15 August, Saturday

Time Temperature Precipitation Wind Pressure Humidity
00:00 +13°C° 0 mm 1 mps 760 mmHg 95%
01:00 +13°C° 0 mm 1 mps 760 mmHg 95%
02:00 +13°C° 0 mm 1 mps 760 mmHg 96%
03:00 +13°C° 0 mm 1 mps 760 mmHg 96%
04:00 +13°C° 0 mm 1 mps 760 mmHg 96%
05:00 +13°C° 0 mm 1 mps 760 mmHg 95%
06:00 +14°C° 0 mm 1 mps 760 mmHg 95%
07:00 +15°C° 0 mm 1 mps 760 mmHg 90%
08:00 +16°C° 0 mm 1 mps 760 mmHg 86%
09:00 +17°C° 0 mm 2 mps 760 mmHg 82%
10:00 +19°C° 0 mm 2 mps 760 mmHg 78%
11:00 +20°C° 0 mm 2 mps 760 mmHg 75%
12:00 +21°C° 0 mm 2 mps 760 mmHg 71%
13:00 +21°C° 0 mm 2 mps 760 mmHg 71%
14:00 +23°C° 0 mm 2 mps 760 mmHg 72%
15:00 +22°C° 0 mm 3 mps 759 mmHg 72%
16:00 +21°C° 0 mm 3 mps 759 mmHg 76%
17:00 +20°C° 0 mm 2 mps 759 mmHg 79%
18:00 +19°C° 0 mm 2 mps 759 mmHg 83%
19:00 +18°C° 0 mm 2 mps 759 mmHg 86%
20:00 +17°C° 0 mm 2 mps 759 mmHg 90%
21:00 +15°C° 0 mm 2 mps 759 mmHg 94%
22:00 +15°C° 0 mm 2 mps 759 mmHg 94%
23:00 +15°C° 0 mm 2 mps 759 mmHg 94%

16 August, Sunday

Time Temperature Precipitation Wind Pressure Humidity
00:00 +14°C° 0 mm 1 mps 759 mmHg 94%
01:00 +14°C° 0 mm 2 mps 759 mmHg 94%
02:00 +14°C° 0 mm 2 mps 758 mmHg 93%
03:00 +14°C° 0 mm 2 mps 758 mmHg 93%
04:00 +14°C° 0.1 mm 2 mps 758 mmHg 93%
05:00 +14°C° 0.1 mm 2 mps 758 mmHg 93%
06:00 +14°C° 0.1 mm 2 mps 757 mmHg 93%
07:00 +15°C° 0 mm 2 mps 757 mmHg 90%
08:00 +16°C° 0 mm 2 mps 757 mmHg 87%
09:00 +17°C° 0 mm 2 mps 758 mmHg 84%
10:00 +17°C° 0 mm 3 mps 757 mmHg 78%
11:00 +18°C° 0 mm 3 mps 757 mmHg 73%
12:00 +19°C° 0 mm 3 mps 757 mmHg 67%
13:00 +19°C° 0 mm 3 mps 756 mmHg 68%
14:00 +18°C° 0 mm 3 mps 756 mmHg 68%
15:00 +18°C° 0 mm 3 mps 756 mmHg 68%
16:00 +17°C° 0.1 mm 3 mps 755 mmHg 72%
17:00 +17°C° 0.1 mm 3 mps 755 mmHg 76%
18:00 +16°C° 0.1 mm 2 mps 754 mmHg 79%
19:00 +15°C° 0.3 mm 2 mps 754 mmHg 83%
20:00 +15°C° 0.3 mm 2 mps 754 mmHg 87%
21:00 +14°C° 0.3 mm 2 mps 754 mmHg 91%
22:00 +14°C° 0.4 mm 2 mps 753 mmHg 92%
23:00 +14°C° 0.4 mm 2 mps 753 mmHg 94%

17 August, Monday

Time Temperature Precipitation Wind Pressure Humidity
00:00 +14°C° 0.4 mm 2 mps 752 mmHg 95%
01:00 +14°C° 0.2 mm 2 mps 752 mmHg 95%
02:00 +14°C° 0.2 mm 2 mps 752 mmHg 95%
03:00 +14°C° 0.2 mm 2 mps 751 mmHg 95%
04:00 +14°C° 0 mm 1 mps 751 mmHg 94%
05:00 +14°C° 0 mm 1 mps 750 mmHg 94%
06:00 +15°C° 0 mm 1 mps 750 mmHg 93%
07:00 +15°C° 0 mm 1 mps 750 mmHg 92%
08:00 +16°C° 0 mm 1 mps 750 mmHg 91%
09:00 +18°C° 0 mm 1 mps 750 mmHg 89%
10:00 +18°C° 0 mm 1 mps 749 mmHg 88%
11:00 +19°C° 0 mm 1 mps 749 mmHg 87%
12:00 +19°C° 0 mm 1 mps 749 mmHg 87%
13:00 +19°C° 0.3 mm 2 mps 748 mmHg 86%
14:00 +19°C° 0.3 mm 2 mps 748 mmHg 85%
15:00 +20°C° 0.3 mm 2 mps 747 mmHg 85%
16:00 +19°C° 1.1 mm 2 mps 747 mmHg 87%
17:00 +19°C° 1.1 mm 2 mps 747 mmHg 89%
18:00 +19°C° 1.1 mm 2 mps 746 mmHg 91%
19:00 +19°C° 1.3 mm 1 mps 746 mmHg 93%
20:00 +18°C° 1.3 mm 1 mps 746 mmHg 95%
21:00 +16°C° 1.3 mm 1 mps 746 mmHg 97%
22:00 +16°C° 0.2 mm 1 mps 746 mmHg 96%
23:00 +16°C° 0.2 mm 1 mps 745 mmHg 96%
Show more